KD4KKF Weather Reports


time (UTC)temp
C
wind
direction
speed
KPH
gust
KPH
rain 1hr
cm
rain 24hr
cm
rain mn
cm
humidity
%
barometer
mb
20260504202822 26 229 9.7 12.9 0.00 0.00 0.00 44 1012.3
20260504202320 26 179 0.0 0.0 0.00 0.00 0.00 43 1012.6
20260504201816 26 356 1.6 1.6 0.00 0.00 0.00 45 1012.6
20260504201314 25 242 4.8 4.8 0.00 0.00 0.00 46 1012.8
20260504200811 25 280 8.0 11.3 0.00 0.00 0.00 47 1012.8
20260504200307 25 311 9.7 11.3 0.00 0.00 0.00 47 1012.9
20260504195803 26 283 4.8 4.8 0.00 0.00 0.00 45 1013.0
20260504195259 26 279 3.2 3.2 0.00 0.00 0.00 44 1012.7
20260504194756 26 166 11.3 14.5 0.00 0.00 0.00 43 1012.8
20260504194253 26 68 6.4 8.0 0.00 0.00 0.00 45 1012.8
20260504193749 26 88 4.8 8.0 0.00 0.00 0.00 46 1013.0
20260504193246 25 272 6.4 11.3 0.00 0.00 0.00 46 1013.0
20260504192745 26 171 4.8 9.7 0.00 0.00 0.00 45 1012.9
20260504192242 25 128 0.0 1.6 0.00 0.00 0.00 46 1013.2
20260504191741 25 138 3.2 3.2 0.00 0.00 0.00 47 1013.1
20260504191237 26 274 3.2 4.8 0.00 0.00 0.00 46 1013.5
20260504190733 26 163 9.7 11.3 0.00 0.00 0.00 46 1013.1
20260504190230 25 141 1.6 3.2 0.00 0.00 0.00 48 1013.4
20260504185726 25 266 6.4 8.0 0.00 0.00 0.00 48 1013.2
20260504185223 25 230 9.7 14.5 0.00 0.00 0.00 46 1013.5
20260504184719 25 150 1.6 3.2 0.00 0.00 0.00 47 1013.5
20260504184215 25 227 3.2 3.2 0.00 0.00 0.00 46 1013.3
20260504183711 26 253 6.4 8.0 0.00 0.00 0.00 45 1013.7
20260504183208 26 225 3.2 4.8 0.00 0.00 0.00 44 1013.7
20260504182706 25 166 0.0 1.6 0.00 0.00 0.00 48 1013.8
20260504182203 25 92 4.8 8.0 0.00 0.00 0.00 46 1014.0
20260504181701 25 235 3.2 3.2 0.00 0.00 0.00 46 1013.9
20260504181158 25 136 1.6 1.6 0.00 0.00 0.00 48 1013.8
20260504180657 25 282 3.2 8.0 0.00 0.00 0.00 49 1014.1
20260504180155 25 154 3.2 3.2 0.00 0.00 0.00 48 1013.8
20260504175652 25 293 4.8 8.0 0.00 0.00 0.00 49 1014.0
20260504175149 24 171 3.2 3.2 0.00 0.00 0.00 50 1014.1
20260504174647 23 249 3.2 4.8 0.00 0.00 0.00 51 1014.3
20260504174143 23 139 9.7 12.9 0.00 0.00 0.00 51 1014.5
20260504173640 23 172 3.2 3.2 0.00 0.00 0.00 54 1014.4
20260504173138 25 183 4.8 4.8 0.00 0.00 0.00 49 1014.4
20260504172634 25 186 8.0 9.7 0.00 0.00 0.00 50 1014.8
20260504172131 24 304 3.2 4.8 0.00 0.00 0.00 56 1014.6
20260504171627 23 175 1.6 3.2 0.00 0.00 0.00 52 1014.8
20260504171125 23 340 3.2 4.8 0.00 0.00 0.00 56 1014.9
20260504170621 24 240 8.0 9.7 0.00 0.00 0.00 52 1015.0
20260504170119 23 217 1.6 1.6 0.00 0.00 0.00 55 1014.9
20260504151004 22 155 1.6 3.2 0.00 0.00 0.00 63 1016.2
20260504150501 21 126 0.0 0.0 0.00 0.00 0.00 65 1016.0
20260504140922 18 195 0.0 0.0 0.00 0.00 0.00 72 1016.7
20260504140418 17 146 0.0 0.0 0.00 0.00 0.00 72 1016.4
20260504130343 15 138 4.8 8.0 0.00 0.00 0.00 83 1016.9
20260504120301 7 141 0.0 0.0 0.00 0.00 0.00 99 1016.5
20260504110224 6 162 0.0 0.0 0.00 0.00 0.00 99 1015.7
20260504100148 6 161 0.0 0.0 0.00 0.00 0.00 99 1015.8
20260504090110 6 161 0.0 0.0 0.00 0.00 0.00 99 1015.8
20260504081541 6 161 0.0 0.0 0.00 0.00 0.00 99 1015.7
20260504081036 7 161 0.0 0.0 0.00 0.00 0.00 99 1015.7
20260504080533 7 161 0.0 0.0 0.00 0.00 0.00 99 1015.7
20260504050346 8 161 0.0 0.0 0.00 0.00 0.00 99 1017.4
20260504045844 8 161 0.0 0.0 0.00 0.00 0.00 99 1017.4
20260504045344 8 161 0.0 0.0 0.00 0.00 0.00 99 1017.2
20260504044841 8 161 0.0 0.0 0.00 0.00 0.00 99 1017.3
20260504044338 8 161 0.0 0.0 0.00 0.00 0.00 99 1017.4
20260504043836 8 161 0.0 0.0 0.00 0.00 0.00 99 1017.2
20260504043332 8 161 0.0 0.0 0.00 0.00 0.00 99 1017.5
20260504042830 8 161 0.0 0.0 0.00 0.00 0.00 99 1017.6
20260504042326 9 161 0.0 0.0 0.00 0.00 0.00 99 1017.6
20260504041822 9 161 0.0 0.0 0.00 0.00 0.00 99 1017.7
20260504041318 9 161 0.0 0.0 0.00 0.00 0.00 99 1017.9
20260504040815 9 161 0.0 0.0 0.00 0.00 0.00 99 1017.9
20260504040313 9 161 0.0 0.0 0.00 0.00 0.00 99 1017.7
20260504035808 9 161 0.0 0.0 0.00 0.00 0.00 99 1017.7
20260504035306 10 161 0.0 0.0 0.00 0.00 0.00 99 1017.6
20260504034803 10 161 0.0 0.0 0.00 0.00 0.00 99 1017.8
20260504034300 10 161 0.0 0.0 0.00 0.00 0.00 99 1017.6
20260504033757 10 162 0.0 0.0 0.00 0.00 0.00 99 1017.6
20260504033255 10 161 0.0 0.0 0.00 0.00 0.00 99 1017.5
20260504032751 10 161 0.0 0.0 0.00 0.00 0.00 99 1017.4
20260504032249 10 161 0.0 0.0 0.00 0.00 0.00 99 1017.6
20260504031745 10 161 0.0 0.0 0.00 0.00 0.00 99 1017.4
20260504031243 10 161 0.0 0.0 0.00 0.00 0.00 99 1017.4
20260504030738 10 161 0.0 0.0 0.00 0.00 0.00 99 1017.4
20260504030236 10 161 0.0 0.0 0.00 0.00 0.00 98 1017.5
20260504025732 10 161 0.0 0.0 0.00 0.00 0.00 98 1017.7
20260504025229 10 161 0.0 0.0 0.00 0.00 0.00 98 1017.4
20260504024726 10 161 0.0 0.0 0.00 0.00 0.00 97 1017.8
20260504024223 11 161 0.0 0.0 0.00 0.00 0.00 96 1017.5
20260504023720 10 161 0.0 0.0 0.00 0.00 0.00 95 1017.7
20260504023216 11 161 0.0 0.0 0.00 0.00 0.00 95 1017.7
20260504022712 11 162 0.0 0.0 0.00 0.00 0.00 94 1017.8
20260504022208 11 164 0.0 0.0 0.00 0.00 0.00 94 1017.8
20260504021706 11 170 0.0 0.0 0.00 0.00 0.00 94 1017.6
20260504021202 11 170 0.0 0.0 0.00 0.00 0.00 93 1017.4
20260504020659 11 128 0.0 0.0 0.00 0.00 0.00 94 1017.7
20260504020155 11 127 0.0 0.0 0.00 0.00 0.00 93 1017.5
20260504015652 11 253 0.0 0.0 0.00 0.00 0.00 93 1017.2
20260504015148 12 253 0.0 0.0 0.00 0.00 0.00 92 1017.2
20260504014644 12 253 0.0 0.0 0.00 0.00 0.00 91 1016.9
20260504014142 12 253 0.0 0.0 0.00 0.00 0.00 90 1017.0
20260504013639 12 253 0.0 0.0 0.00 0.00 0.00 90 1016.9
20260504013136 12 253 0.0 0.0 0.00 0.00 0.00 91 1016.9
20260504012633 12 253 0.0 0.0 0.00 0.00 0.00 91 1016.8
20260504012131 12 253 0.0 0.0 0.00 0.00 0.00 92 1016.9
20260504011628 12 253 0.0 0.0 0.00 0.00 0.00 90 1016.9
20260504011124 13 253 0.0 0.0 0.00 0.00 0.00 89 1016.8
20260504010620 13 253 0.0 0.0 0.00 0.00 0.00 87 1016.6
20260504010116 13 254 0.0 0.0 0.00 0.00 0.00 86 1016.6
20260504005613 13 254 0.0 0.0 0.00 0.00 0.00 85 1016.4
20260504005110 14 254 0.0 0.0 0.00 0.00 0.00 84 1016.5
20260504004608 14 254 0.0 0.0 0.00 0.00 0.00 82 1016.6
20260504004105 14 254 0.0 0.0 0.00 0.00 0.00 81 1016.7
20260504003601 15 254 0.0 0.0 0.00 0.00 0.00 80 1016.7
20260504003058 15 254 0.0 0.0 0.00 0.00 0.00 79 1016.4
20260504002555 15 254 0.0 0.0 0.00 0.00 0.00 78 1016.4
20260504002052 15 254 0.0 0.0 0.00 0.00 0.00 75 1016.2
20260504001550 15 254 0.0 0.0 0.00 0.00 0.00 73 1016.4
20260504001045 16 254 0.0 0.0 0.00 0.00 0.00 75 1016.6
20260504000543 16 254 0.0 0.0 0.00 0.00 0.00 73 1016.4
20260504000041 17 255 0.0 0.0 0.00 0.00 0.00 71 1016.6
20260503235539 17 249 0.0 0.0 0.00 0.00 0.00 68 1016.6
20260503235035 17 250 0.0 0.0 0.00 0.00 0.00 68 1016.6
20260503234533 18 203 0.0 0.0 0.00 0.00 0.00 60 1016.2
20260503234031 18 204 0.0 1.6 0.00 0.00 0.00 61 1016.4
20260503233527 19 216 1.6 1.6 0.00 0.00 0.00 56 1016.7
20260503233023 19 198 0.0 0.0 0.00 0.00 0.00 60 1016.5
20260503232520 20 222 0.0 0.0 0.00 0.00 0.00 55 1016.4
20260503232018 20 257 0.0 1.6 0.00 0.00 0.00 47 1016.6
20260503231516 21 189 3.2 3.2 0.00 0.00 0.00 47 1016.6
20260503231012 21 174 0.0 0.0 0.00 0.00 0.00 46 1016.6
20260503230509 21 227 3.2 3.2 0.00 0.00 0.00 42 1016.8
20260503230006 21 214 0.0 0.0 0.00 0.00 0.00 42 1016.9
20260503225503 22 230 0.0 0.0 0.00 0.00 0.00 42 1016.8
20260503224958 21 235 0.0 0.0 0.00 0.00 0.00 40 1016.8
20260503224455 21 267 4.8 4.8 0.00 0.00 0.00 41 1016.9
20260503223953 21 300 3.2 4.8 0.00 0.00 0.00 41 1016.8
20260503223451 21 265 1.6 3.2 0.00 0.00 0.00 41 1016.7
20260503222946 21 259 4.8 4.8 0.00 0.00 0.00 40 1016.5
20260503222445 21 299 0.0 1.6 0.00 0.00 0.00 40 1016.7
20260503221943 22 255 4.8 4.8 0.00 0.00 0.00 40 1016.8
20260503221440 22 228 0.0 0.0 0.00 0.00 0.00 41 1016.6
20260503220932 22 342 4.8 4.8 0.00 0.00 0.00 44 1016.7
20260503220428 22 273 1.6 3.2 0.00 0.00 0.00 39 1016.9
20260503215925 22 356 0.0 0.0 0.00 0.00 0.00 41 1016.8
20260503215422 22 243 4.8 4.8 0.00 0.00 0.00 40 1016.8
20260503214920 22 286 1.6 1.6 0.00 0.00 0.00 41 1017.1
20260503214417 21 252 4.8 4.8 0.00 0.00 0.00 41 1017.0
20260503213915 22 237 0.0 0.0 0.00 0.00 0.00 39 1016.9
20260503213413 21 243 0.0 0.0 0.00 0.00 0.00 42 1017.1
20260503212909 22 72 4.8 4.8 0.00 0.00 0.00 41 1017.2
20260503212406 21 48 9.7 11.3 0.00 0.00 0.00 40 1017.3
20260503211904 22 103 4.8 4.8 0.00 0.00 0.00 40 1017.4
20260503211400 22 308 8.0 9.7 0.00 0.00 0.00 38 1017.7
20260503210855 22 348 4.8 4.8 0.00 0.00 0.00 38 1017.5
20260503210352 22 341 1.6 3.2 0.00 0.00 0.00 39 1017.6
20260503205847 22 201 3.2 3.2 0.00 0.00 0.00 37 1017.8
20260503205345 22 238 0.0 0.0 0.00 0.00 0.00 39 1017.4
20260503204841 21 272 8.0 11.3 0.00 0.00 0.00 38 1017.7
20260503204338 22 284 8.0 9.7 0.00 0.00 0.00 42 1017.5
20260503203835 21 263 6.4 9.7 0.00 0.00 0.00 37 1017.9
20260503203333 22 240 4.8 8.0 0.00 0.00 0.00 38 1017.9